Regional Weather Roundup
Issued by NWS

Home | Current Version | Previous Version | Graphics & Text | Print | Product List | Glossary On
Versions: 1 2 3 4 5 6 7 8 9 10 11 12 13 14 15 16 17 18 19 20 21 22 23 24 25 26 27 28 29 30 31 32 33 34 35 36 37 38 39 40 41 42 43 44 45 46 47 48 49 50
000
ASUS43 KIND 260109
RWRIN

WEATHER ROUNDUP FOR INDIANA
NATIONAL WEATHER SERVICE INDIANAPOLIS IN
900 PM EDT MON JUL 25 2016

NOTE: "FAIR" INDICATES FEW OR NO CLOUDS BELOW 12,000 FEET WITH NO
SIGNIFICANT WEATHER AND/OR OBSTRUCTIONS TO VISIBILITY.

* - STATION DOES NOT REPORT WEATHER SUCH AS PRECIPITATION OR FOG.

+ - STATION NOT QUALITY CONTROLLED BY THE NATIONAL WEATHER SERVICE.
    USE DATA WITH CAUTION...ESPECIALLY DEWPOINT AND RELATIVE
    HUMIDITY OBSERVATIONS.

INZ001>003-010>013-019-020-260200-
NORTHWEST INDIANA

CITY           SKY/WX    TMP DP  RH WIND       PRES   REMARKS
GARY /AIRPORT/ MOCLDY    79  64  61 E5        29.99S
KNOX *+        MOCLDY    73  66  78 CALM      30.00R
LA PORTE +     MOCLDY    78  65  63 CALM      30.01S
MICHIGAN CITY+ CLOUDY    77  64  65 CALM      30.00S
MONTICELLO +   CLOUDY    76  64  66 CALM      30.00R
RENSSELAER +   CLOUDY    75  73  94 CALM      30.00R
VALPARAISO     MOCLDY    76  71  85 CALM      30.01R

$$

LMZ046-743>745-260200-
SOUTHERN LAKE MICHIGAN

STATION/POSITION TIME  TEMP    WIND        PRES    WAVE
                       AIR SEA DIR/SP/G            HT
                 (UTC) (F)     (DEG/KT/KT) (MB)    (FT)
BURNS HARBOR     0000   79      80/  6/ 11 1015.9S
MICHIGAN CITY    0000   78      20/  6/  6   N/A
5NW MICH CITY    0100   77 76   50/  4/  6   N/A     1

$$

INZ004-005-014>016-021>024-260200-
NORTH CENTRAL INDIANA

CITY           SKY/WX    TMP DP  RH WIND       PRES   REMARKS
GOSHEN         PTCLDY    77  61  57 NW7       30.00R
LOGANSPORT +   CLOUDY    72  66  83 N5        30.01S
PERU/GRISSOM   CLOUDY    79  68  69 N5        29.99R
ROCHESTER +    CLOUDY    77  68  73 CALM      30.01R
SOUTH BEND     CLEAR     76  63  64 N5        30.01R
WARSAW +       CLOUDY    75  63  64 NW5       30.00S

$$

INZ006>009-017-018-025>027-260200-
NORTHEAST INDIANA

CITY           SKY/WX    TMP DP  RH WIND       PRES   REMARKS
ANGOLA *+      CLEAR     79  72  78 NW5       29.99R
AUBURN +       PTCLDY    79  61  53 NW6       30.00R
FORT WAYNE     MOCLDY    77  65  66 W6        29.99R
HUNTINGTON +   PTCLDY    77  65  66 NW5       29.99S

$$

INZ028-029-035-036-043>045-051>053-260200-
WEST CENTRAL INDIANA

CITY           SKY/WX    TMP DP  RH WIND       PRES   REMARKS
CRAWFORDSVL +  CLOUDY    78  75  92 N3        29.99S
GREENCASTLE +  MOCLDY    79  73  83 CALM      30.00S
LAFAYETTE      PTCLDY    78  71  79 NE5       29.99R
TERRE HAUTE    CLOUDY    82  75  79 N5        29.98R

$$

INZ030>032-037>040-046>048-054>057-064-065-260200-
CENTRAL INDIANA

CITY           SKY/WX    TMP DP  RH WIND       PRES   REMARKS
COLUMBUS       CLEAR     81  79  94 CALM      29.98S
INDIANAPOLIS   CLOUDY    82  71  69 NW6       29.99R
-EAGLE CREEK   CLOUDY    82  72  71 N6        29.98R
KOKOMO *+      MOCLDY    79  70  73 N5        30.00R
MARION +       PTCLDY    77  69  75 NW3       30.01R
MT COMFORT *+  CLOUDY    79  73  83 N6        30.00R
SHELBYVILLE    MOCLDY    85  74  69 CALM      29.98R
ZIONSVILLE +   CLOUDY    76  72  87 N3        30.01R

$$

INZ033-034-041-042-049-050-058-059-260200-
EAST CENTRAL INDIANA

CITY           SKY/WX    TMP DP  RH WIND       PRES   REMARKS
MUNCIE         PTCLDY    78  71  79 NW6       30.00R

$$

INZ060-061-067>069-081>083-085>088-260200-
SOUTHWEST INDIANA

CITY           SKY/WX    TMP DP  RH WIND       PRES   REMARKS
EVANSVILLE     CLOUDY    79  75  87 CALM      29.97F
HUNTINGBURG *+ CLOUDY    77  72  83 SW5       29.98F
WASHINGTON +   MOCLDY    79  79 100 MISG      29.97S

$$

INZ062-063-066-070>080-084-089>092-260200-
SOUTH CENTRAL AND SOUTHEAST INDIANA

CITY           SKY/WX    TMP DP  RH WIND       PRES   REMARKS
BLOOMINGTON    CLOUDY    79  74  84 CALM      29.99S
MADISON *+     CLOUDY    77  73  88 CALM      30.02S
NORTH VERNON + CLOUDY   N/A N/A N/A CALM      30.00R

$$





USA.gov is the U.S. government's official web portal to all federal, state and local government web resources and services.